SRR227 LFMN-LFBO

Flight info

Callsign SRR227
Flight time 0h 28m
Altitude 29000
Route TURIL DCT PADKO/N0485F300 DCT FJR/N0409F180 G393 AFRIC
Aircraft B77L/H-SDE1E2E3FGHIJ2J3J4J5M1RWXY/LB1D1

Departure

Time 2026-05-07 20:37
Airport Nice-Côte d'Azur Airport (LFMN)

Arrival

Time 2026-05-07 21:06
Airport Toulouse-Blagnac Airport (LFBO)
Time Latitude Longitude Altitude Speed Heading
2026-05-07 20:13 43.66319 7.20569 16 ft 0 kts 281°
2026-05-07 20:26 43.66318 7.20576 16 ft 4 kts 281°
2026-05-07 20:26 43.66313 7.20612 16 ft 4 kts 278°
2026-05-07 20:26 43.66310 7.20649 16 ft 4 kts 275°
2026-05-07 20:27 43.66308 7.20686 17 ft 4 kts 273°
2026-05-07 20:27 43.66306 7.20723 19 ft 4 kts 271°
2026-05-07 20:27 43.66307 7.20761 18 ft 4 kts 268°
2026-05-07 20:27 43.66308 7.20798 16 ft 4 kts 264°
2026-05-07 20:28 43.66311 7.20828 16 ft 0 kts 261°
2026-05-07 20:30 43.66310 7.20820 16 ft 5 kts 261°
2026-05-07 20:30 43.66269 7.20763 16 ft 11 kts 182°
2026-05-07 20:30 43.66191 7.20776 16 ft 11 kts 172°
2026-05-07 20:31 43.66113 7.20793 16 ft 12 kts 171°
2026-05-07 20:31 43.66027 7.20812 16 ft 13 kts 171°
2026-05-07 20:31 43.65931 7.20835 16 ft 15 kts 170°
2026-05-07 20:31 43.65834 7.20859 16 ft 14 kts 170°
2026-05-07 20:32 43.65779 7.20872 17 ft 4 kts 170°
2026-05-07 20:32 43.65746 7.20879 17 ft 6 kts 171°
2026-05-07 20:32 43.65702 7.20889 17 ft 7 kts 171°
2026-05-07 20:32 43.65604 7.20911 24 ft 24 kts 170°
2026-05-07 20:33 43.65443 7.20947 18 ft 22 kts 171°
2026-05-07 20:33 43.65315 7.20911 18 ft 19 kts 223°
2026-05-07 20:33 43.65224 7.20786 18 ft 18 kts 225°
2026-05-07 20:33 43.65133 7.20662 18 ft 18 kts 224°
2026-05-07 20:34 43.65042 7.20539 18 ft 18 kts 224°
2026-05-07 20:34 43.64953 7.20413 18 ft 18 kts 225°
2026-05-07 20:34 43.64871 7.20300 18 ft 15 kts 225°
2026-05-07 20:34 43.64806 7.20212 18 ft 9 kts 224°
2026-05-07 20:35 43.64761 7.20182 19 ft 6 kts 172°
2026-05-07 20:35 43.64727 7.20210 23 ft 6 kts 136°
2026-05-07 20:35 43.64700 7.20252 26 ft 6 kts 128°
2026-05-07 20:35 43.64718 7.20307 28 ft 8 kts 47°
2026-05-07 20:36 43.64724 7.20316 24 ft 0 kts 46°
2026-05-07 20:36 43.64737 7.20334 25 ft 14 kts 46°
2026-05-07 20:37 43.64948 7.20627 25 ft 79 kts 45°
2026-05-07 20:37 43.65511 7.21401 28 ft 144 kts 45°
2026-05-07 20:37 43.66308 7.22520 164 ft 175 kts 46°
2026-05-07 20:37 43.67044 7.23849 681 ft 178 kts 74°
2026-05-07 20:38 43.66978 7.25530 1064 ft 183 kts 118°
2026-05-07 20:38 43.66119 7.26823 1531 ft 187 kts 139°
2026-05-07 20:38 43.65075 7.28033 1876 ft 206 kts 140°
2026-05-07 20:38 43.63957 7.29327 2384 ft 214 kts 139°
2026-05-07 20:39 43.62810 7.30683 2963 ft 219 kts 139°
2026-05-07 20:39 43.61657 7.32060 3623 ft 220 kts 139°
2026-05-07 20:39 43.60387 7.33210 4151 ft 223 kts 165°
2026-05-07 20:39 43.58857 7.33180 4713 ft 224 kts 202°
2026-05-07 20:40 43.57561 7.31911 4976 ft 243 kts 234°
2026-05-07 20:40 43.56794 7.29740 5248 ft 261 kts 249°
2026-05-07 20:40 43.56160 7.27346 5832 ft 270 kts 250°
2026-05-07 20:40 43.55526 7.24871 6519 ft 276 kts 250°
2026-05-07 20:41 43.54888 7.22364 7259 ft 279 kts 250°
2026-05-07 20:41 43.54238 7.19824 7997 ft 282 kts 250°
2026-05-07 20:41 43.53582 7.17270 8748 ft 285 kts 250°
2026-05-07 20:41 43.52913 7.14684 9481 ft 288 kts 250°
2026-05-07 20:42 43.52236 7.12067 10179 ft 292 kts 250°
2026-05-07 20:42 43.51537 7.09378 10573 ft 309 kts 249°
2026-05-07 20:42 43.50780 7.06485 10748 ft 333 kts 249°
2026-05-07 20:42 43.49964 7.03379 10957 ft 357 kts 249°
2026-05-07 20:43 43.48828 6.99075 11616 ft 374 kts 249°
2026-05-07 20:43 43.45181 6.85332 15119 ft 388 kts 249°
2026-05-07 20:43 43.41397 6.71177 18294 ft 402 kts 249°
2026-05-07 20:43 43.37456 6.56517 21049 ft 413 kts 249°
2026-05-07 20:44 43.33572 6.42158 23684 ft 422 kts 249°
2026-05-07 20:44 43.29425 6.26923 25897 ft 430 kts 249°
2026-05-07 20:44 43.25169 6.11372 27985 ft 439 kts 248°
2026-05-07 20:45 43.22689 5.94852 29654 ft 451 kts 266°
2026-05-07 20:45 43.22900 5.77617 30054 ft 453 kts 268°
2026-05-07 20:45 43.23053 5.60478 29984 ft 449 kts 267°
2026-05-07 20:45 43.23153 5.43139 30724 ft 459 kts 267°
2026-05-07 20:46 43.25110 5.25625 31015 ft 472 kts 284°
2026-05-07 20:46 43.29526 5.08930 30935 ft 455 kts 285°
2026-05-07 20:46 43.33761 4.92677 31045 ft 445 kts 284°
2026-05-07 20:47 43.50404 4.27221 31008 ft 457 kts 284°
2026-05-07 20:47 43.58498 3.94477 30917 ft 443 kts 281°
2026-05-07 20:47 43.59906 3.87082 30957 ft 440 kts 277°
2026-05-07 20:48 43.61242 3.78780 30993 ft 446 kts 277°
2026-05-07 20:48 43.62676 3.70467 30993 ft 445 kts 278°
2026-05-07 20:48 43.64735 3.58993 30748 ft 443 kts 278°
2026-05-07 20:49 43.67650 3.42691 28278 ft 428 kts 279°
2026-05-07 20:49 43.70445 3.27023 26056 ft 413 kts 280°
2026-05-07 20:49 43.73131 3.11815 24150 ft 401 kts 280°
2026-05-07 20:49 43.75714 2.96954 22086 ft 392 kts 281°
2026-05-07 20:50 43.75946 2.86915 20742 ft 376 kts 246°
2026-05-07 20:50 43.74718 2.83769 20358 ft 371 kts 234°
2026-05-07 20:50 43.72977 2.81152 19900 ft 370 kts 223°
2026-05-07 20:50 43.71044 2.78784 19464 ft 374 kts 221°
2026-05-07 20:51 43.69049 2.76398 19038 ft 383 kts 221°
2026-05-07 20:51 43.67193 2.73777 18490 ft 383 kts 235°
2026-05-07 20:51 43.65900 2.70570 17878 ft 384 kts 248°
2026-05-07 20:51 43.65082 2.67078 17328 ft 380 kts 257°
2026-05-07 20:52 43.64519 2.63518 16766 ft 378 kts 258°
2026-05-07 20:52 43.63983 2.59969 16255 ft 376 kts 258°
2026-05-07 20:52 43.63457 2.56451 15797 ft 373 kts 258°
2026-05-07 20:52 43.62931 2.52968 15320 ft 370 kts 258°
2026-05-07 20:53 43.62408 2.49546 14849 ft 368 kts 258°
2026-05-07 20:53 43.61876 2.46103 14326 ft 367 kts 257°
2026-05-07 20:53 43.61341 2.42677 13862 ft 364 kts 257°
2026-05-07 20:53 43.60809 2.39282 13394 ft 361 kts 257°
2026-05-07 20:54 43.60276 2.35906 12874 ft 359 kts 257°
2026-05-07 20:54 43.59746 2.32555 12371 ft 357 kts 257°
2026-05-07 20:54 43.59218 2.29221 11857 ft 355 kts 257°
2026-05-07 20:54 43.58693 2.25915 11388 ft 352 kts 257°
2026-05-07 20:55 43.58168 2.22620 10855 ft 351 kts 257°
2026-05-07 20:55 43.57645 2.19339 10382 ft 349 kts 257°
2026-05-07 20:55 43.57125 2.16084 9928 ft 346 kts 257°
2026-05-07 20:55 43.56616 2.12901 9820 ft 333 kts 257°
2026-05-07 20:56 43.56127 2.09851 9702 ft 319 kts 257°
2026-05-07 20:56 43.55657 2.06925 9598 ft 306 kts 257°
2026-05-07 20:56 43.55206 2.04121 9510 ft 293 kts 257°
2026-05-07 20:56 43.54771 2.01427 9310 ft 284 kts 257°
2026-05-07 20:57 43.54345 1.98785 8986 ft 280 kts 257°
2026-05-07 20:57 43.53925 1.96188 8723 ft 274 kts 257°
2026-05-07 20:57 43.53514 1.93654 8410 ft 269 kts 257°
2026-05-07 20:57 43.53109 1.91153 8066 ft 266 kts 257°
2026-05-07 20:58 43.52704 1.88664 7664 ft 266 kts 257°
2026-05-07 20:58 43.52300 1.86177 7274 ft 266 kts 257°
2026-05-07 20:58 43.51895 1.83696 6926 ft 264 kts 257°
2026-05-07 20:58 43.51496 1.81249 6667 ft 261 kts 256°
2026-05-07 20:59 43.51097 1.78813 6467 ft 260 kts 257°
2026-05-07 20:59 43.50698 1.76376 6255 ft 262 kts 256°
2026-05-07 20:59 43.50295 1.73910 6005 ft 265 kts 256°
2026-05-07 20:59 43.49887 1.71423 5702 ft 266 kts 256°
2026-05-07 21:00 43.49482 1.68949 5422 ft 262 kts 256°
2026-05-07 21:00 43.49084 1.66528 5155 ft 257 kts 256°
2026-05-07 21:00 43.48692 1.64149 4873 ft 252 kts 256°
2026-05-07 21:00 43.48310 1.61830 4601 ft 246 kts 255°
2026-05-07 21:01 43.47878 1.59579 4348 ft 242 kts 251°
2026-05-07 21:01 43.47384 1.57373 4138 ft 241 kts 251°
2026-05-07 21:01 43.47056 1.55915 3997 ft 240 kts 253°
2026-05-07 21:01 43.46976 1.53659 3800 ft 240 kts 284°
2026-05-07 21:02 43.48270 1.51175 3627 ft 248 kts 327°
2026-05-07 21:02 43.49261 1.50376 3481 ft 252 kts 330°
2026-05-07 21:02 43.51268 1.48695 3037 ft 255 kts 326°
2026-05-07 21:02 43.52238 1.47738 2805 ft 253 kts 323°
2026-05-07 21:03 43.53610 1.46295 2508 ft 244 kts 323°
2026-05-07 21:03 43.54924 1.44923 2152 ft 229 kts 323°
2026-05-07 21:03 43.56148 1.43652 1849 ft 212 kts 323°
2026-05-07 21:03 43.57279 1.42477 1599 ft 195 kts 324°
2026-05-07 21:04 43.58302 1.41414 1345 ft 179 kts 323°
2026-05-07 21:04 43.59264 1.40415 1057 ft 161 kts 324°
2026-05-07 21:04 43.60121 1.39533 898 ft 154 kts 323°
2026-05-07 21:04 43.60987 1.38627 677 ft 157 kts 323°
2026-05-07 21:05 43.61840 1.37735 510 ft 154 kts 324°
2026-05-07 21:05 43.62617 1.36928 489 ft 120 kts 323°
2026-05-07 21:05 43.63161 1.36362 490 ft 76 kts 323°
2026-05-07 21:05 43.63511 1.35998 489 ft 57 kts 323°
2026-05-07 21:06 43.63699 1.35805 489 ft 18 kts 335°
2026-05-07 21:06 43.63798 1.35895 492 ft 18 kts 53°
2026-05-07 21:06 43.63768 1.36040 488 ft 18 kts 142°
2026-05-07 21:06 43.63666 1.36149 489 ft 18 kts 143°
2026-05-07 21:07 43.63563 1.36255 489 ft 18 kts 143°
2026-05-07 21:07 43.63461 1.36360 488 ft 18 kts 143°
2026-05-07 21:07 43.63361 1.36464 490 ft 18 kts 143°
2026-05-07 21:07 43.63259 1.36571 489 ft 18 kts 143°
2026-05-07 21:08 43.63156 1.36678 490 ft 18 kts 143°
2026-05-07 21:08 43.63056 1.36783 489 ft 18 kts 143°
2026-05-07 21:08 43.62954 1.36889 487 ft 18 kts 143°
2026-05-07 21:08 43.62853 1.36996 490 ft 18 kts 143°
2026-05-07 21:09 43.62751 1.37101 488 ft 18 kts 143°
2026-05-07 21:09 43.62649 1.37206 491 ft 18 kts 143°
2026-05-07 21:09 43.62546 1.37311 489 ft 18 kts 142°
2026-05-07 21:09 43.62463 1.37399 489 ft 14 kts 142°
2026-05-07 21:10 43.62387 1.37479 487 ft 14 kts 142°
2026-05-07 21:10 43.62315 1.37555 487 ft 10 kts 142°
2026-05-07 21:10 43.62315 1.37642 493 ft 11 kts 59°
2026-05-07 21:10 43.62359 1.37723 489 ft 11 kts 52°
2026-05-07 21:11 43.62398 1.37768 492 ft 6 kts 355°
2026-05-07 21:11 43.62435 1.37741 490 ft 4 kts 327°
2026-05-07 21:11 43.62441 1.37735 490 ft 0 kts 325°